Tracking 29932 objects as of 4-Dec-2024
HD Live streaming from Space Station
objects crossing your sky now

STARLINK-31465

Track STARLINK-31465 now!
10-day predictions
STARLINK-31465 is classified as:


NORAD ID: 59012
Int'l Code: 2024-036Q
Perigee: 481.8 km
Apogee: 482.9 km
Inclination: 53.2 °
Period: 94.1 minutes
Semi major axis: 6853 km
RCS: Unknown
Launch date: February 23, 2024
Source: United States (US)
Launch site: AIR FORCE WESTERN TEST RANGE (AFWTR)
Your satellite tracking list
Your tracking list is empty




NASA's NSSDC Master Catalog

Two Line Element Set (TLE):
1 59012U 24036Q   24338.53427146 -.00000639  00000-0 -94652-5 0  9995
2 59012  53.1585  60.4777 0000798 124.0449 236.0628 15.30200578 44719
Source of the keplerian elements: AFSPC